GW1013 Weather Reports


Display with metric or nautical units.
time (UTC)temp
F
wind
direction
speed
MPH
gust
MPH
rain 1hr
in
rain 24hr
in
rain mn
in
humidity
%
barometer
mb
20260506024546 69 273 1.0 8.0 0.00 0.25 0.13 35 1012.2
20260506023047 69 259 3.0 9.0 0.00 0.25 0.13 34 1012.0
20260506021548 70 274 1.0 9.0 0.00 0.25 0.13 33 1011.7
20260506020046 71 301 6.0 13.0 0.00 0.25 0.13 31 1011.4
20260506014546 72 244 5.0 15.0 0.00 0.26 0.13 28 1011.3
20260506013049 72 242 3.0 17.0 0.00 0.26 0.13 27 1011.3
20260506011556 73 232 5.0 17.0 0.00 0.26 0.13 29 1011.1
20260506010054 73 242 6.0 18.0 0.00 0.26 0.13 30 1010.9
20260506004621 75 268 8.0 17.0 0.00 0.26 0.13 29 1010.8
20260506003051 76 291 8.0 19.0 0.00 0.26 0.13 27 1010.7
20260506001550 76 219 6.0 18.0 0.00 0.26 0.13 25 1010.5
20260506000054 77 261 4.0 20.0 0.00 0.26 0.13 26 1010.4
20260505234610 77 248 4.0 12.0 0.00 0.26 0.13 26 1010.3
20260505233046 76 190 2.0 14.0 0.00 0.26 0.13 27 1010.1
20260505231550 77 246 5.0 17.0 0.00 0.26 0.13 26 1010.2
20260505230050 76 0 4.0 11.0 0.00 0.26 0.13 29 1010.3
20260505224549 76 272 1.0 13.0 0.00 0.26 0.13 29 1010.3
20260505223101 76 225 1.0 16.0 0.00 0.26 0.13 28 1010.5
20260505221559 77 247 4.0 15.0 0.00 0.26 0.13 28 1010.6
20260505220124 77 236 7.0 17.0 0.00 0.26 0.13 28 1010.9
20260505214608 77 196 3.0 10.0 0.00 0.26 0.13 30 1011.1
20260505213055 78 248 3.0 12.0 0.00 0.26 0.13 29 1011.2
20260505211608 77 246 3.0 14.0 0.00 0.26 0.13 35 1011.3
20260505210052 78 276 4.0 17.0 0.00 0.26 0.13 30 1011.4
20260505204550 78 177 8.0 21.0 0.00 0.26 0.13 29 1011.3
20260505203046 78 268 5.0 19.0 0.00 0.26 0.13 31 1011.5
20260505201601 77 0 4.0 16.0 0.00 0.26 0.13 32 1011.7
20260505200100 77 207 10.0 19.0 0.00 0.26 0.13 33 1011.8
20260505194607 75 283 1.0 16.0 0.00 0.26 0.13 42 1012.0
20260505193047 76 199 9.0 23.0 0.00 0.26 0.13 38 1012.1
20260505191547 74 0 6.0 15.0 0.00 0.26 0.13 44 1012.2
20260505190049 72 278 2.0 9.0 0.00 0.26 0.13 48 1012.4
20260505184549 71 0 1.0 6.0 0.00 0.26 0.13 51 1012.5
20260505183051 70 0 0.0 3.0 0.00 0.26 0.13 53 1012.8
20260505181547 71 0 0.0 6.0 0.00 0.26 0.13 52 1012.9
20260505180046 70 180 3.0 10.0 0.00 0.26 0.13 53 1013.0
20260505174550 69 0 0.0 4.0 0.00 0.26 0.13 52 1013.2
20260505173050 69 257 2.0 9.0 0.00 0.26 0.13 57 1013.4
20260505171546 68 0 2.0 8.0 0.00 0.26 0.13 59 1013.2
20260505170048 67 0 0.0 0.0 0.00 0.26 0.13 63 1013.3
20260505164553 66 0 0.0 0.0 0.00 0.26 0.13 64 1013.3
20260505163049 65 0 0.0 1.0 0.00 0.26 0.13 67 1013.2
20260505161548 64 0 0.0 2.0 0.00 0.26 0.13 70 1013.3
20260505153052 62 0 0.0 0.0 0.00 0.26 0.13 80 1013.1
20260505151549 61 0 0.0 1.0 0.00 0.26 0.13 84 1013.1
20260505130111 59 0 0.0 0.0 0.00 0.26 0.13 88 1012.1
20260505124605 59 0 0.0 0.0 0.00 0.26 0.13 87 1012.1
20260505123108 59 0 0.0 0.0 0.00 0.26 0.13 87 1011.9
20260505121549 59 0 0.0 2.0 0.00 0.26 0.13 87 1011.9
20260505120053 59 144 1.0 7.0 0.01 0.26 0.13 88 1011.5
20260505114547 58 116 2.0 11.0 0.01 0.26 0.13 88 1011.7
20260505113045 58 134 7.0 10.0 0.01 0.26 0.13 88 1011.7
20260505111549 58 153 4.0 10.0 0.02 0.26 0.13 89 1012.0
20260505101549 59 0 4.0 9.0 0.01 0.24 0.11 88 1012.6
20260505100050 59 144 5.0 17.0 0.01 0.23 0.10 88 1013.0
20260505094552 59 134 7.0 14.0 0.01 0.23 0.10 88 1012.8
20260505093050 59 111 11.0 20.0 0.01 0.23 0.10 88 1013.0
20260505091550 59 144 10.0 16.0 0.03 0.23 0.10 87 1013.1
20260505090048 59 74 8.0 14.0 0.04 0.22 0.09 88 1012.9
20260505084548 59 148 6.0 13.0 0.05 0.22 0.09 88 1013.5
20260505083050 59 136 6.0 11.0 0.07 0.22 0.09 88 1014.0
20260505081555 59 142 5.0 12.0 0.07 0.20 0.07 88 1014.6
20260505080103 59 158 7.0 12.0 0.05 0.18 0.05 88 1015.0
20260505074552 60 125 6.0 11.0 0.05 0.17 0.04 88 1015.2
20260505073054 60 113 5.0 8.0 0.05 0.15 0.02 88 1015.5
20260505071546 60 110 3.0 9.0 0.05 0.13 0.00 87 1015.5
20260505070055 60 147 4.0 7.0 0.06 0.13 0.00 86 1015.2
20260505064550 60 133 3.0 7.0 0.05 0.12 0.12 85 1015.3
20260505063111 60 0 0.0 3.0 0.04 0.10 0.10 84 1015.2
20260505061545 60 0 0.0 3.0 0.03 0.08 0.08 83 1015.3
20260505060046 60 112 2.0 7.0 0.02 0.07 0.07 83 1015.3
20260505054543 60 121 2.0 7.0 0.02 0.07 0.07 82 1015.0
20260505053057 60 114 4.0 10.0 0.02 0.06 0.06 82 1015.0
20260505051546 60 117 5.0 8.0 0.02 0.05 0.05 82 1015.2
20260505041554 61 178 2.0 5.0 0.02 0.03 0.03 73 1015.4
20260505040054 62 169 2.0 7.0 0.01 0.02 0.02 68 1015.5
20260505034554 63 196 3.0 8.0 0.00 0.01 0.01 61 1015.4
20260505033049 63 115 8.0 16.0 0.00 0.01 0.01 58 1014.3
20260505031602 62 146 7.0 19.0 0.00 0.01 0.01 56 1013.7
20260505030051 63 107 7.0 16.0 0.00 0.01 0.01 56 1013.8